Weather in Pushnoy

Russia / Republic of Karelia     64°24′02″N   34°08′38″E
temp.,
°C
wind,
m/s
gust,
m/s
humid.,
%
clouds,
%
prec.,
mm/h
press.,
hPa
HPBL,
m
2 december, thu
thu200:00−7n2697100 0.3 984228
03:00−9nw2498100 0.6 98678
06:00−8nnw4994100 0.4 987282
09:00−7nw4995100 0.9 988385
12:00−4ne2697100 0.6 990354
15:00−5nne51194100 1.6 992622
18:00−6n4109583 0.3 994442
21:00−5nne5119498 0.6 995619
3 december, fri
fri300:00−5nne5119496 0.6 997779
03:00−4ne41096100 2.1 998790
06:00−5e399498 1.9 1000720
09:00−7ene41280100 2.1 1003387
12:00−7e51276100 0.0 1005586
15:00−8e41179100 0.0 1006370
18:00−8e41280100 0.0 1008479
21:00−9e51278100 0.0 1009567
4 december, sat
sat400:00−11ene513785 0.0 1010632
03:00−11ene614755 0.0 1011783
06:00−10ene6147513 0.0 1012896
09:00−10ene6137550 0.0 1013931
12:00−10ene6137561 0.0 1014981
15:00−11ene5127685 0.0 1015745
18:00−11ene512765 0.0 1017614
21:00−10ene512755 0.0 1019512
5 december, sun
sun500:00−10ene41180100 0.0 1021414
03:00−10ene289194 0.1 1022286
06:00−15nne119730 0.0 102310
09:00−19nw109918 0.0 10269
12:00−19nw11965 0.0 10289
15:00−20nnw11965 0.0 10299
18:00−21wnw11975 0.0 10309
21:00−21sw11955 0.0 10329
6 december, mon
mon600:00−21w11925 0.0 10339
03:00−21sw11875 0.0 10339
06:00−21ssw11825 0.0 10339
09:00−21s11845 0.0 10339
12:00−21sse11905 0.0 103310
15:00−21ese11955 0.0 10329
18:00−20se1210037 0.0 103142
21:00−20se1110072 0.0 103017